Time,TemperatureF,DewpointF,PressureIn,WindDirection,WindDirectionDegrees,WindSpeedMPH,WindSpeedGustMPH,Humidity,HourlyPrecipIn,Conditions,Clouds,dailyrainin,SoftwareType,DateUTC
2013-08-28 00:03:00,63.1,45.5,29.97,NE,38,0.0,0.0,52,0.00,,---,0.00,VWS V14.01,2013-08-28 07:03:00,
2013-08-28 00:09:00,63.3,45.7,29.97,NE,38,0.0,0.0,52,0.00,,---,0.00,VWS V14.01,2013-08-28 07:09:00,
2013-08-28 00:15:00,63.0,45.3,29.97,NE,38,0.0,0.0,52,0.00,,---,0.00,VWS V14.01,2013-08-28 07:15:00,
2013-08-28 00:20:00,63.0,46.1,29.97,NE,38,0.0,0.0,54,0.00,,---,0.00,VWS V14.01,2013-08-28 07:20:00,
2013-08-28 00:26:00,63.0,46.1,29.97,NE,38,0.0,0.0,54,0.00,,---,0.00,VWS V14.01,2013-08-28 07:26:00,
2013-08-28 00:31:00,62.8,45.9,29.97,NE,38,0.0,0.0,54,0.00,,---,0.00,VWS V14.01,2013-08-28 07:31:00,
2013-08-28 00:37:00,62.2,45.4,29.94,NE,38,0.0,0.0,54,0.00,,---,0.00,VWS V14.01,2013-08-28 07:37:00,
2013-08-28 00:42:00,61.7,45.6,29.94,NE,38,0.0,0.0,56,0.00,,---,0.00,VWS V14.01,2013-08-28 07:42:00,
2013-08-28 00:48:00,61.7,45.6,29.94,NE,38,0.0,0.0,56,0.00,,---,0.00,VWS V14.01,2013-08-28 07:48:00,
2013-08-28 00:53:00,61.9,45.8,29.94,NE,38,0.0,0.0,56,0.00,,---,0.00,VWS V14.01,2013-08-28 07:53:00,
2013-08-28 00:59:00,61.9,45.8,29.94,NE,38,0.0,0.0,56,0.00,,---,0.00,VWS V14.01,2013-08-28 07:59:00,
2013-08-28 01:05:00,62.1,46.0,29.94,NE,38,0.0,0.0,56,0.00,,---,0.00,VWS V14.01,2013-08-28 08:05:00,
2013-08-28 01:11:00,61.7,46.3,29.94,NE,38,0.0,0.0,57,0.00,,---,0.00,VWS V14.01,2013-08-28 08:11:00,
2013-08-28 01:16:00,61.3,46.0,29.94,NE,38,0.0,0.0,57,0.00,,---,0.00,VWS V14.01,2013-08-28 08:16:00,
2013-08-28 01:21:00,61.5,46.2,29.94,NE,38,0.0,0.0,57,0.00,,---,0.00,VWS V14.01,2013-08-28 08:21:00,
2013-08-28 01:27:00,61.7,46.3,29.94,ENE,59,0.0,0.0,57,0.00,,---,0.00,VWS V14.01,2013-08-28 08:27:00,
2013-08-28 01:32:00,61.7,46.3,29.94,SSE,150,3.6,3.6,57,0.00,,---,0.00,VWS V14.01,2013-08-28 08:32:00,
2013-08-28 01:37:00,61.5,46.2,29.94,SSE,161,4.0,4.5,57,0.00,,---,0.00,VWS V14.01,2013-08-28 08:37:00,
2013-08-28 01:42:00,61.5,46.8,29.94,SSE,152,0.0,0.0,58,0.00,,---,0.00,VWS V14.01,2013-08-28 08:42:00,
2013-08-28 01:47:00,61.7,47.0,29.94,East,96,3.1,3.1,58,0.00,,---,0.00,VWS V14.01,2013-08-28 08:47:00,
2013-08-28 01:53:00,61.5,46.8,29.94,East,101,2.7,2.7,58,0.00,,---,0.00,VWS V14.01,2013-08-28 08:53:00,
2013-08-28 01:59:00,61.5,46.8,29.94,East,101,2.7,2.7,58,0.00,,---,0.00,VWS V14.01,2013-08-28 08:59:00,
2013-08-28 02:05:00,61.0,47.0,29.94,East,101,2.7,2.7,60,0.00,,---,0.00,VWS V14.01,2013-08-28 09:05:00,
2013-08-28 02:10:00,60.8,46.8,29.94,NE,40,0.0,0.0,60,0.00,,---,0.00,VWS V14.01,2013-08-28 09:10:00,
2013-08-28 02:15:00,60.6,46.7,29.94,NE,40,0.0,0.0,60,0.00,,---,0.00,VWS V14.01,2013-08-28 09:15:00,
2013-08-28 02:20:00,60.6,46.7,29.94,NE,40,0.0,0.0,60,0.00,,---,0.00,VWS V14.01,2013-08-28 09:20:00,
2013-08-28 02:26:00,60.6,47.3,29.94,NE,41,2.2,2.7,62,0.00,,---,0.00,VWS V14.01,2013-08-28 09:26:00,
2013-08-28 02:32:00,60.8,46.8,29.94,ESE,111,2.7,2.7,60,0.00,,---,0.00,VWS V14.01,2013-08-28 09:32:00,
2013-08-28 02:35:00,60.6,47.3,29.94,ESE,113,2.2,2.2,62,0.00,,---,0.00,VWS V14.01,2013-08-28 09:35:00,
2013-08-28 02:41:00,60.6,47.3,29.94,ESE,113,2.2,2.2,62,0.00,,---,0.00,VWS V14.01,2013-08-28 09:41:00,
2013-08-28 02:47:00,60.1,46.8,29.94,North,353,0.0,0.0,62,0.00,,---,0.00,VWS V14.01,2013-08-28 09:47:00,
2013-08-28 02:53:00,60.1,46.8,29.94,North,0,0.0,0.0,62,0.00,,---,0.00,VWS V14.01,2013-08-28 09:53:00,
2013-08-28 02:58:00,60.3,47.0,29.94,North,0,0.0,0.0,62,0.00,,---,0.00,VWS V14.01,2013-08-28 09:58:00,
2013-08-28 03:04:00,60.4,47.2,29.94,East,89,0.0,0.0,62,0.00,,---,0.00,VWS V14.01,2013-08-28 10:04:00,
2013-08-28 03:10:00,60.6,47.3,29.94,East,89,0.0,0.0,62,0.00,,---,0.00,VWS V14.01,2013-08-28 10:10:00,
2013-08-28 03:15:00,60.4,47.2,29.94,East,89,0.0,0.0,62,0.00,,---,0.00,VWS V14.01,2013-08-28 10:15:00,
2013-08-28 03:21:00,60.4,47.2,29.94,East,89,0.0,0.0,62,0.00,,---,0.00,VWS V14.01,2013-08-28 10:21:00,
2013-08-28 03:27:00,60.3,47.0,29.94,East,89,0.0,0.0,62,0.00,,---,0.00,VWS V14.01,2013-08-28 10:27:00,
2013-08-28 03:33:00,60.1,46.8,29.94,East,89,0.0,0.0,62,0.00,,---,0.00,VWS V14.01,2013-08-28 10:33:00,
2013-08-28 03:39:00,60.3,47.6,29.94,East,89,0.0,0.0,63,0.00,,---,0.00,VWS V14.01,2013-08-28 10:39:00,
2013-08-28 03:44:00,60.3,47.6,29.94,East,84,0.0,0.0,63,0.00,,---,0.00,VWS V14.01,2013-08-28 10:44:00,
2013-08-28 03:49:00,60.3,47.6,29.94,ESE,104,0.0,0.0,63,0.00,,---,0.00,VWS V14.01,2013-08-28 10:49:00,
2013-08-28 03:54:00,60.4,47.8,29.94,ENE,62,0.0,0.0,63,0.00,,---,0.00,VWS V14.01,2013-08-28 10:54:00,
2013-08-28 04:00:00,60.1,47.5,29.94,ENE,62,0.0,0.0,63,0.00,,---,0.00,VWS V14.01,2013-08-28 11:00:00,
2013-08-28 04:05:00,59.9,47.3,29.94,ENE,62,0.0,0.0,63,0.00,,---,0.00,VWS V14.01,2013-08-28 11:05:00,
2013-08-28 04:10:00,59.5,47.0,29.94,ENE,62,0.0,0.0,63,0.00,,---,0.00,VWS V14.01,2013-08-28 11:10:00,
2013-08-28 04:16:00,59.5,47.0,29.94,ENE,62,0.0,0.0,63,0.00,,---,0.00,VWS V14.01,2013-08-28 11:16:00,
2013-08-28 04:21:00,59.5,47.6,29.94,ENE,62,0.0,0.0,64,0.00,,---,0.00,VWS V14.01,2013-08-28 11:21:00,
2013-08-28 04:27:00,59.4,47.4,29.94,ENE,62,0.0,0.0,64,0.00,,---,0.00,VWS V14.01,2013-08-28 11:27:00,
2013-08-28 04:32:00,59.4,47.4,29.94,ENE,62,0.0,0.0,64,0.00,,---,0.00,VWS V14.01,2013-08-28 11:32:00,
2013-08-28 04:38:00,59.4,47.4,29.94,ENE,62,0.0,0.0,64,0.00,,---,0.00,VWS V14.01,2013-08-28 11:38:00,
2013-08-28 04:44:00,59.4,47.4,29.94,ENE,62,0.0,0.0,64,0.00,,---,0.00,VWS V14.01,2013-08-28 11:44:00,
2013-08-28 04:50:00,59.2,47.2,29.94,ENE,63,0.0,0.0,64,0.00,,---,0.00,VWS V14.01,2013-08-28 11:50:00,
2013-08-28 04:56:00,59.0,47.1,29.94,ENE,63,0.0,0.0,64,0.00,,---,0.00,VWS V14.01,2013-08-28 11:56:00,
2013-08-28 05:02:00,58.8,46.9,29.94,ENE,63,0.0,0.0,64,0.00,,---,0.00,VWS V14.01,2013-08-28 12:02:00,
2013-08-28 05:08:00,58.5,46.5,29.94,ENE,63,0.0,0.0,64,0.00,,---,0.00,VWS V14.01,2013-08-28 12:08:00,
2013-08-28 05:13:00,58.3,46.4,29.94,ENE,63,0.0,0.0,64,0.00,,---,0.00,VWS V14.01,2013-08-28 12:13:00,
2013-08-28 05:19:00,58.1,46.2,29.94,ENE,63,0.0,0.0,64,0.00,,---,0.00,VWS V14.01,2013-08-28 12:19:00,
2013-08-28 05:24:00,58.3,47.0,29.94,ENE,63,0.0,0.0,66,0.00,,---,0.00,VWS V14.01,2013-08-28 12:24:00,
2013-08-28 05:30:00,58.1,46.8,29.94,ENE,63,0.0,0.0,66,0.00,,---,0.00,VWS V14.01,2013-08-28 12:30:00,
2013-08-28 05:35:00,58.1,46.8,29.94,ENE,63,0.0,0.0,66,0.00,,---,0.00,VWS V14.01,2013-08-28 12:35:00,
2013-08-28 05:41:00,57.9,46.6,29.94,ENE,63,0.0,0.0,66,0.00,,---,0.00,VWS V14.01,2013-08-28 12:41:00,
2013-08-28 05:47:00,57.9,46.6,29.94,ENE,63,0.0,0.0,66,0.00,,---,0.00,VWS V14.01,2013-08-28 12:47:00,
2013-08-28 05:52:00,58.1,46.8,29.94,ESE,102,0.0,0.0,66,0.00,,---,0.00,VWS V14.01,2013-08-28 12:52:00,
2013-08-28 05:57:00,57.9,46.6,29.94,East,85,0.0,0.0,66,0.00,,---,0.00,VWS V14.01,2013-08-28 12:57:00,
2013-08-28 06:02:00,57.9,46.6,29.94,East,85,0.0,0.0,66,0.00,,---,0.00,VWS V14.01,2013-08-28 13:02:00,
2013-08-28 06:08:00,57.9,46.6,29.97,East,85,0.0,0.0,66,0.00,,---,0.00,VWS V14.01,2013-08-28 13:08:00,
2013-08-28 06:13:00,58.1,46.8,29.97,East,85,0.0,0.0,66,0.00,,---,0.00,VWS V14.01,2013-08-28 13:13:00,
2013-08-28 06:19:00,58.1,47.4,29.97,East,85,0.0,0.0,68,0.00,,---,0.00,VWS V14.01,2013-08-28 13:19:00,
2013-08-28 06:24:00,57.9,47.2,29.97,ENE,60,0.0,0.0,68,0.00,,---,0.00,VWS V14.01,2013-08-28 13:24:00,
2013-08-28 06:30:00,57.7,47.1,29.97,ENE,60,0.0,0.0,68,0.00,,---,0.00,VWS V14.01,2013-08-28 13:30:00,
2013-08-28 06:35:00,57.6,46.9,29.97,ENE,60,0.0,0.0,68,0.00,,---,0.00,VWS V14.01,2013-08-28 13:35:00,
2013-08-28 06:41:00,57.6,46.9,29.97,ENE,59,0.0,0.0,68,0.00,,---,0.00,VWS V14.01,2013-08-28 13:41:00,
2013-08-28 06:47:00,57.9,47.2,29.97,NW,308,0.0,0.0,68,0.00,,---,0.00,VWS V14.01,2013-08-28 13:47:00,
2013-08-28 06:52:00,58.3,47.6,29.97,NW,307,0.0,0.0,68,0.00,,---,0.00,VWS V14.01,2013-08-28 13:52:00,
2013-08-28 06:57:00,58.6,47.9,29.97,NW,307,0.0,0.0,68,0.00,,---,0.00,VWS V14.01,2013-08-28 13:57:00,
2013-08-28 07:03:00,58.5,47.8,29.97,NW,307,0.0,0.0,68,0.00,,---,0.00,VWS V14.01,2013-08-28 14:03:00,
2013-08-28 07:09:00,58.5,47.8,29.97,North,357,0.0,0.0,68,0.00,,---,0.00,VWS V14.01,2013-08-28 14:09:00,
2013-08-28 07:14:00,58.6,47.9,29.97,SSE,159,0.0,0.0,68,0.00,,---,0.00,VWS V14.01,2013-08-28 14:14:00,
2013-08-28 07:20:00,58.8,48.7,29.97,SSE,157,0.0,0.0,69,0.00,,---,0.00,VWS V14.01,2013-08-28 14:20:00,
2013-08-28 07:25:00,59.4,48.6,29.97,SSE,157,0.0,0.0,68,0.00,,---,0.00,VWS V14.01,2013-08-28 14:25:00,
2013-08-28 07:31:00,60.3,50.1,29.97,SSE,157,0.0,0.0,69,0.00,,---,0.00,VWS V14.01,2013-08-28 14:31:00,
2013-08-28 07:37:00,61.0,50.2,29.97,SSE,156,0.0,0.0,68,0.00,,---,0.00,VWS V14.01,2013-08-28 14:37:00,
2013-08-28 07:42:00,61.5,50.7,29.97,SSE,156,0.0,0.0,68,0.00,,---,0.00,VWS V14.01,2013-08-28 14:42:00,
2013-08-28 07:47:00,62.6,51.7,29.97,SW,231,0.0,0.0,68,0.00,,---,0.00,VWS V14.01,2013-08-28 14:47:00,
2013-08-28 07:53:00,63.9,52.9,30.00,SW,231,0.0,0.0,68,0.00,,---,0.00,VWS V14.01,2013-08-28 14:53:00,
2013-08-28 07:58:00,65.5,54.5,30.00,SW,231,0.0,0.0,68,0.00,,---,0.00,VWS V14.01,2013-08-28 14:58:00,
2013-08-28 08:04:00,66.7,55.0,30.00,SW,231,0.0,0.0,66,0.00,,---,0.00,VWS V14.01,2013-08-28 15:04:00,
2013-08-28 08:09:00,68.4,56.6,30.00,ESE,117,0.0,0.0,66,0.00,,---,0.00,VWS V14.01,2013-08-28 15:09:00,
2013-08-28 08:15:00,70.0,57.5,30.00,SW,232,0.0,0.0,64,0.00,,---,0.00,VWS V14.01,2013-08-28 15:15:00,
2013-08-28 08:20:00,71.1,57.8,30.00,SSE,151,0.0,0.0,63,0.00,,---,0.00,VWS V14.01,2013-08-28 15:20:00,
2013-08-28 08:26:00,73.0,57.6,30.00,SSE,151,0.0,0.0,58,0.00,,---,0.00,VWS V14.01,2013-08-28 15:26:00,
2013-08-28 08:31:00,74.3,57.4,30.00,ESE,121,0.0,0.0,56,0.00,,---,0.00,VWS V14.01,2013-08-28 15:31:00,
2013-08-28 08:37:00,75.7,57.2,30.00,South,169,0.0,0.0,52,0.00,,---,0.00,VWS V14.01,2013-08-28 15:37:00,
2013-08-28 08:42:00,77.0,56.7,30.00,SE,137,0.0,0.0,50,0.00,,---,0.00,VWS V14.01,2013-08-28 15:42:00,
2013-08-28 08:48:00,78.3,57.0,30.00,SSE,153,0.0,0.0,48,0.00,,---,0.00,VWS V14.01,2013-08-28 15:48:00,
2013-08-28 08:53:00,79.7,57.4,30.00,SSE,157,0.0,0.0,46,0.00,,---,0.00,VWS V14.01,2013-08-28 15:53:00,
2013-08-28 08:59:00,81.0,56.7,30.00,SSE,154,0.0,0.0,44,0.00,,---,0.00,VWS V14.01,2013-08-28 15:59:00,
2013-08-28 09:05:00,82.4,52.8,30.00,East,81,0.0,0.0,36,0.00,,---,0.00,VWS V14.01,2013-08-28 16:05:00,
2013-08-28 09:10:00,83.5,51.4,30.00,ESE,102,0.0,0.0,33,0.00,,---,0.00,VWS V14.01,2013-08-28 16:10:00,
2013-08-28 09:15:00,84.2,49.4,30.00,ENE,69,3.6,4.9,30,0.00,,---,0.00,VWS V14.01,2013-08-28 16:15:00,
2013-08-28 09:21:00,85.1,50.2,30.00,SE,142,2.2,2.7,30,0.00,,---,0.00,VWS V14.01,2013-08-28 16:21:00,
2013-08-28 09:26:00,85.8,49.5,30.00,SSE,153,0.0,0.0,28,0.00,,---,0.00,VWS V14.01,2013-08-28 16:26:00,
2013-08-28 09:32:00,86.2,48.3,30.00,NNW,338,4.0,4.9,27,0.00,,---,0.00,VWS V14.01,2013-08-28 16:32:00,
2013-08-28 09:38:00,86.0,48.2,30.00,WNW,296,2.7,2.7,27,0.00,,---,0.00,VWS V14.01,2013-08-28 16:38:00,
2013-08-28 09:43:00,86.5,48.6,30.00,WSW,238,3.1,5.4,27,0.00,,---,0.00,VWS V14.01,2013-08-28 16:43:00,
2013-08-28 09:49:00,87.6,49.5,30.00,WSW,243,4.0,5.4,27,0.00,,---,0.00,VWS V14.01,2013-08-28 16:49:00,
2013-08-28 09:54:00,87.8,44.8,30.00,WSW,242,10.1,10.5,22,0.00,,---,0.00,VWS V14.01,2013-08-28 16:54:00,
2013-08-28 10:00:00,87.8,44.8,30.00,SW,222,8.3,8.7,22,0.00,,---,0.00,VWS V14.01,2013-08-28 17:00:00,
2013-08-28 10:06:00,88.5,45.5,30.00,WSW,256,5.4,10.1,22,0.00,,---,0.00,VWS V14.01,2013-08-28 17:06:00,
2013-08-28 10:11:00,88.0,45.0,30.00,West,267,8.1,10.1,22,0.00,,---,0.00,VWS V14.01,2013-08-28 17:11:00,
2013-08-28 10:17:00,88.5,45.5,30.00,SW,236,6.3,9.2,22,0.00,,---,0.00,VWS V14.01,2013-08-28 17:17:00,
2013-08-28 10:22:00,89.1,45.9,30.00,SW,225,5.4,7.6,22,0.00,,---,0.00,VWS V14.01,2013-08-28 17:22:00,
2013-08-28 10:28:00,89.6,40.5,30.00,WSW,256,7.6,8.3,18,0.00,,---,0.00,VWS V14.01,2013-08-28 17:28:00,
2013-08-28 10:33:00,89.4,42.5,30.00,West,260,11.0,11.0,20,0.00,,---,0.00,VWS V14.01,2013-08-28 17:33:00,
2013-08-28 10:38:00,88.2,41.4,30.00,NNW,348,8.1,8.7,20,0.00,,---,0.00,VWS V14.01,2013-08-28 17:38:00,
2013-08-28 10:44:00,89.2,42.3,30.00,WSW,246,7.6,10.5,20,0.00,,---,0.00,VWS V14.01,2013-08-28 17:44:00,
2013-08-28 10:49:00,90.5,41.3,30.00,West,261,8.7,8.7,18,0.00,,---,0.00,VWS V14.01,2013-08-28 17:49:00,
2013-08-28 10:55:00,89.6,40.5,30.00,West,264,4.0,4.9,18,0.00,,---,0.00,VWS V14.01,2013-08-28 17:55:00,
2013-08-28 11:00:00,89.6,40.5,30.00,NW,310,8.3,10.1,18,0.00,,---,0.00,VWS V14.01,2013-08-28 18:00:00,
2013-08-28 11:06:00,89.2,42.3,30.00,West,261,8.1,8.7,20,0.00,,---,0.00,VWS V14.01,2013-08-28 18:06:00,
2013-08-28 11:11:00,89.8,40.7,30.00,West,267,8.1,13.2,18,0.00,,---,0.00,VWS V14.01,2013-08-28 18:11:00,
2013-08-28 11:17:00,89.4,42.5,30.00,SW,236,11.0,12.8,20,0.00,,---,0.00,VWS V14.01,2013-08-28 18:17:00,
2013-08-28 11:23:00,89.6,40.5,30.00,West,266,10.1,11.0,18,0.00,,---,0.00,VWS V14.01,2013-08-28 18:23:00,
2013-08-28 11:28:00,90.3,41.1,30.00,SSW,212,7.6,10.5,18,0.00,,---,0.00,VWS V14.01,2013-08-28 18:28:00,
2013-08-28 11:34:00,91.0,41.7,30.00,WSW,254,10.5,10.5,18,0.00,,---,0.00,VWS V14.01,2013-08-28 18:34:00,
2013-08-28 11:39:00,91.8,42.3,30.00,WNW,289,5.8,8.1,18,0.00,,---,0.00,VWS V14.01,2013-08-28 18:39:00,
2013-08-28 11:45:00,91.9,42.4,30.00,WSW,247,10.1,12.8,18,0.00,,---,0.00,VWS V14.01,2013-08-28 18:45:00,
2013-08-28 11:50:00,91.6,42.1,30.00,WNW,283,5.8,10.5,18,0.00,,---,0.00,VWS V14.01,2013-08-28 18:50:00,
2013-08-28 11:56:00,90.7,41.4,30.00,NW,316,7.6,8.3,18,0.00,,---,0.00,VWS V14.01,2013-08-28 18:56:00,
2013-08-28 12:01:00,91.4,42.0,30.00,WNW,299,8.3,10.5,18,0.00,,---,0.00,VWS V14.01,2013-08-28 19:01:00,
2013-08-28 12:06:00,91.0,41.7,30.00,SSW,200,5.4,11.0,18,0.00,,---,0.00,VWS V14.01,2013-08-28 19:06:00,
2013-08-28 12:12:00,92.8,43.2,30.00,West,277,12.8,12.8,18,0.00,,---,0.00,VWS V14.01,2013-08-28 19:12:00,
2013-08-28 12:17:00,91.9,42.4,30.00,WSW,251,12.8,12.8,18,0.00,,---,0.00,VWS V14.01,2013-08-28 19:17:00,
2013-08-28 12:23:00,92.3,42.7,30.00,SW,229,16.3,16.3,18,0.00,,---,0.00,VWS V14.01,2013-08-28 19:23:00,
2013-08-28 12:28:00,92.5,42.9,30.00,SW,233,11.0,11.0,18,0.00,,---,0.00,VWS V14.01,2013-08-28 19:28:00,
2013-08-28 12:34:00,93.9,41.8,30.00,WSW,247,12.3,15.0,16,0.00,,---,0.00,VWS V14.01,2013-08-28 19:34:00,
2013-08-28 12:39:00,93.2,41.2,30.00,West,267,8.7,11.0,16,0.00,,---,0.00,VWS V14.01,2013-08-28 19:39:00,
2013-08-28 12:45:00,93.0,43.3,30.00,SSW,208,7.6,8.7,18,0.00,,---,0.00,VWS V14.01,2013-08-28 19:45:00,
2013-08-28 12:51:00,93.7,41.6,30.00,West,262,9.6,12.8,16,0.00,,---,0.00,VWS V14.01,2013-08-28 19:51:00,
2013-08-28 12:56:00,95.0,42.6,30.00,WSW,250,4.0,6.7,16,0.00,,---,0.00,VWS V14.01,2013-08-28 19:56:00,
2013-08-28 13:02:00,94.6,42.3,30.00,WSW,243,11.0,13.2,16,0.00,,---,0.00,VWS V14.01,2013-08-28 20:02:00,
2013-08-28 13:08:00,94.5,42.2,30.00,West,270,11.9,11.9,16,0.00,,---,0.00,VWS V14.01,2013-08-28 20:08:00,
2013-08-28 13:13:00,92.7,43.0,30.00,WSW,258,16.3,16.3,18,0.00,,---,0.00,VWS V14.01,2013-08-28 20:13:00,
2013-08-28 13:19:00,93.7,41.6,30.00,SW,226,11.0,14.5,16,0.00,,---,0.00,VWS V14.01,2013-08-28 20:19:00,
2013-08-28 13:24:00,94.3,42.0,30.00,WSW,254,14.5,14.5,16,0.00,,---,0.00,VWS V14.01,2013-08-28 20:24:00,
2013-08-28 13:30:00,92.5,42.9,30.00,WNW,300,8.3,13.2,18,0.00,,---,0.00,VWS V14.01,2013-08-28 20:30:00,
2013-08-28 13:35:00,93.7,41.6,30.00,West,271,11.0,13.2,16,0.00,,---,0.00,VWS V14.01,2013-08-28 20:35:00,
2013-08-28 13:40:00,93.4,41.3,30.00,WNW,299,9.2,12.8,16,0.00,,---,0.00,VWS V14.01,2013-08-28 20:40:00,
2013-08-28 13:45:00,93.7,41.6,30.00,West,273,12.8,15.4,16,0.00,,---,0.00,VWS V14.01,2013-08-28 20:45:00,
2013-08-28 13:51:00,91.8,42.3,30.00,WNW,295,11.0,13.2,18,0.00,,---,0.00,VWS V14.01,2013-08-28 20:51:00,
2013-08-28 13:57:00,90.9,41.5,30.00,WSW,258,10.1,13.2,18,0.00,,---,0.00,VWS V14.01,2013-08-28 20:57:00,
2013-08-28 14:02:00,91.2,41.8,30.00,West,270,13.2,13.2,18,0.00,,---,0.00,VWS V14.01,2013-08-28 21:02:00,
2013-08-28 14:08:00,91.6,42.1,30.00,NW,304,15.4,15.4,18,0.00,,---,0.00,VWS V14.01,2013-08-28 21:08:00,
2013-08-28 14:14:00,90.9,41.5,30.00,WNW,284,16.3,16.3,18,0.00,,---,0.00,VWS V14.01,2013-08-28 21:14:00,
2013-08-28 14:19:00,90.9,41.5,30.00,WNW,300,12.8,19.7,18,0.00,,---,0.00,VWS V14.01,2013-08-28 21:19:00,
2013-08-28 14:24:00,92.3,42.7,29.97,West,275,13.2,16.3,18,0.00,,---,0.00,VWS V14.01,2013-08-28 21:24:00,
2013-08-28 14:30:00,92.7,43.0,29.97,WSW,244,10.5,10.5,18,0.00,,---,0.00,VWS V14.01,2013-08-28 21:30:00,
2013-08-28 14:35:00,92.3,42.7,29.97,NW,308,12.8,12.8,18,0.00,,---,0.00,VWS V14.01,2013-08-28 21:35:00,
2013-08-28 14:41:00,91.9,42.4,29.97,WSW,255,8.7,12.8,18,0.00,,---,0.00,VWS V14.01,2013-08-28 21:41:00,
2013-08-28 14:46:00,91.8,42.3,29.97,West,262,15.4,19.7,18,0.00,,---,0.00,VWS V14.01,2013-08-28 21:46:00,
2013-08-28 14:52:00,93.0,43.3,29.97,West,268,7.6,13.2,18,0.00,,---,0.00,VWS V14.01,2013-08-28 21:52:00,
2013-08-28 14:58:00,92.5,42.9,29.97,WSW,254,15.0,15.0,18,0.00,,---,0.00,VWS V14.01,2013-08-28 21:58:00,
2013-08-28 15:04:00,91.2,41.8,29.97,WNW,298,12.8,18.8,18,0.00,,---,0.00,VWS V14.01,2013-08-28 22:04:00,
2013-08-28 15:09:00,91.0,41.7,29.97,West,267,15.0,15.0,18,0.00,,---,0.00,VWS V14.01,2013-08-28 22:09:00,
2013-08-28 15:14:00,91.6,42.1,29.97,West,267,15.0,15.0,18,0.00,,---,0.00,VWS V14.01,2013-08-28 22:14:00,
2013-08-28 15:20:00,91.8,42.3,29.97,West,267,15.0,15.0,18,0.00,,---,0.00,VWS V14.01,2013-08-28 22:20:00,
2013-08-28 15:25:00,90.5,41.3,29.97,WNW,301,13.2,15.0,18,0.00,,---,0.00,VWS V14.01,2013-08-28 22:25:00,
2013-08-28 15:31:00,90.9,41.5,29.97,West,279,12.3,12.3,18,0.00,,---,0.00,VWS V14.01,2013-08-28 22:31:00,
2013-08-28 15:37:00,91.8,42.3,29.97,West,259,8.7,12.8,18,0.00,,---,0.00,VWS V14.01,2013-08-28 22:37:00,
2013-08-28 15:43:00,91.2,41.8,29.97,WSW,246,11.0,11.0,18,0.00,,---,0.00,VWS V14.01,2013-08-28 22:43:00,
2013-08-28 15:48:00,90.9,41.5,29.97,SW,218,15.4,15.4,18,0.00,,---,0.00,VWS V14.01,2013-08-28 22:48:00,
2013-08-28 15:53:00,91.2,41.8,29.97,SW,218,15.4,15.4,18,0.00,,---,0.00,VWS V14.01,2013-08-28 22:53:00,
2013-08-28 15:58:00,90.1,41.0,29.97,SW,218,15.4,15.4,18,0.00,,---,0.00,VWS V14.01,2013-08-28 22:58:00,
2013-08-28 16:03:00,90.9,41.5,29.97,SW,218,15.4,15.4,18,0.00,,---,0.00,VWS V14.01,2013-08-28 23:03:00,
2013-08-28 16:08:00,91.2,41.8,29.97,SW,218,15.4,15.4,18,0.00,,---,0.00,VWS V14.01,2013-08-28 23:08:00,
2013-08-28 16:14:00,91.0,41.7,29.97,West,264,13.2,13.2,18,0.00,,---,0.00,VWS V14.01,2013-08-28 23:14:00,
2013-08-28 16:19:00,91.2,41.8,29.97,West,272,13.2,13.2,18,0.00,,---,0.00,VWS V14.01,2013-08-28 23:19:00,
2013-08-28 16:24:00,91.9,42.4,29.97,WSW,250,15.4,15.4,18,0.00,,---,0.00,VWS V14.01,2013-08-28 23:24:00,
2013-08-28 16:30:00,90.3,41.1,29.97,West,269,15.0,15.0,18,0.00,,---,0.00,VWS V14.01,2013-08-28 23:30:00,
2013-08-28 16:36:00,89.6,40.5,29.97,WSW,252,10.5,11.0,18,0.00,,---,0.00,VWS V14.01,2013-08-28 23:36:00,
2013-08-28 16:41:00,89.8,40.7,29.97,WSW,252,10.5,10.5,18,0.00,,---,0.00,VWS V14.01,2013-08-28 23:41:00,
2013-08-28 16:46:00,88.9,42.0,29.97,WSW,252,10.5,10.5,20,0.00,,---,0.00,VWS V14.01,2013-08-28 23:46:00,
2013-08-28 16:52:00,88.9,42.0,29.97,WSW,252,10.5,10.5,20,0.00,,---,0.00,VWS V14.01,2013-08-28 23:52:00,
2013-08-28 16:57:00,88.9,42.0,29.97,WSW,252,10.5,10.5,20,0.00,,---,0.00,VWS V14.01,2013-08-28 23:57:00,
2013-08-28 17:04:00,88.3,41.6,29.97,NW,304,8.7,8.7,20,0.00,,---,0.00,VWS V14.01,2013-08-29 00:04:00,
2013-08-28 17:09:00,88.3,41.6,29.97,WNW,288,12.8,12.8,20,0.00,,---,0.00,VWS V14.01,2013-08-29 00:09:00,
2013-08-28 17:14:00,88.5,41.7,29.97,WNW,288,12.8,12.8,20,0.00,,---,0.00,VWS V14.01,2013-08-29 00:14:00,
2013-08-28 17:20:00,89.6,40.5,29.97,WNW,288,12.8,12.8,18,0.00,,---,0.00,VWS V14.01,2013-08-29 00:20:00,
2013-08-28 17:26:00,89.2,42.3,29.97,WNW,288,12.8,12.8,20,0.00,,---,0.00,VWS V14.01,2013-08-29 00:26:00,
2013-08-28 17:31:00,90.0,40.8,29.97,WNW,288,12.8,12.8,18,0.00,,---,0.00,VWS V14.01,2013-08-29 00:31:00,
2013-08-28 17:37:00,88.3,41.6,29.97,WNW,288,12.8,12.8,20,0.00,,---,0.00,VWS V14.01,2013-08-29 00:37:00,
2013-08-28 17:42:00,87.4,40.8,29.97,WNW,288,12.8,12.8,20,0.00,,---,0.00,VWS V14.01,2013-08-29 00:42:00,
2013-08-28 17:47:00,87.6,41.0,29.97,WNW,288,12.8,12.8,20,0.00,,---,0.00,VWS V14.01,2013-08-29 00:47:00,
2013-08-28 17:52:00,87.6,41.0,29.97,WNW,288,12.8,12.8,20,0.00,,---,0.00,VWS V14.01,2013-08-29 00:52:00,
2013-08-28 17:57:00,86.9,40.4,29.97,WNW,288,12.8,12.8,20,0.00,,---,0.00,VWS V14.01,2013-08-29 00:57:00,
2013-08-28 18:02:00,85.8,39.5,29.97,WNW,288,12.8,12.8,20,0.00,,---,0.00,VWS V14.01,2013-08-29 01:02:00,
2013-08-28 18:08:00,85.6,39.4,29.97,WNW,288,12.8,12.8,20,0.00,,---,0.00,VWS V14.01,2013-08-29 01:08:00,
2013-08-28 18:13:00,86.0,39.7,29.97,WNW,288,12.8,12.8,20,0.00,,---,0.00,VWS V14.01,2013-08-29 01:13:00,
2013-08-28 18:18:00,86.0,39.7,29.97,WNW,288,12.8,12.8,20,0.00,,---,0.00,VWS V14.01,2013-08-29 01:18:00,
2013-08-28 18:23:00,85.5,39.2,29.97,WNW,288,12.8,12.8,20,0.00,,---,0.00,VWS V14.01,2013-08-29 01:23:00,
2013-08-28 18:29:00,84.2,38.2,29.97,WNW,288,12.8,12.8,20,0.00,,---,0.00,VWS V14.01,2013-08-29 01:29:00,
2013-08-28 18:35:00,84.2,38.2,29.97,WNW,288,12.8,12.8,20,0.00,,---,0.00,VWS V14.01,2013-08-29 01:35:00,
2013-08-28 18:40:00,83.7,39.6,29.97,WNW,288,12.8,12.8,21,0.00,,---,0.00,VWS V14.01,2013-08-29 01:40:00,
2013-08-28 18:46:00,82.9,39.0,29.97,WNW,288,12.8,12.8,21,0.00,,---,0.00,VWS V14.01,2013-08-29 01:46:00,
2013-08-28 18:51:00,82.4,38.6,29.97,WNW,288,12.8,12.8,21,0.00,,---,0.00,VWS V14.01,2013-08-29 01:51:00,
2013-08-28 18:57:00,81.9,38.1,29.97,WNW,288,12.8,12.8,21,0.00,,---,0.00,VWS V14.01,2013-08-29 01:57:00,
2013-08-28 19:02:00,81.5,42.8,29.97,WNW,288,12.8,12.8,26,0.00,,---,0.00,VWS V14.01,2013-08-29 02:02:00,
2013-08-28 19:07:00,81.3,42.7,30.00,WNW,288,12.8,12.8,26,0.00,,---,0.00,VWS V14.01,2013-08-29 02:07:00,
2013-08-28 19:12:00,80.2,41.8,30.00,WNW,288,12.8,12.8,26,0.00,,---,0.00,VWS V14.01,2013-08-29 02:12:00,
2013-08-28 19:18:00,79.5,41.2,30.00,WNW,288,12.8,12.8,26,0.00,,---,0.00,VWS V14.01,2013-08-29 02:18:00,
2013-08-28 19:23:00,79.3,41.0,30.00,WNW,288,12.8,12.8,26,0.00,,---,0.00,VWS V14.01,2013-08-29 02:23:00,
2013-08-28 19:28:00,79.0,40.7,30.00,WNW,288,12.8,12.8,26,0.00,,---,0.00,VWS V14.01,2013-08-29 02:28:00,
2013-08-28 19:34:00,78.8,40.5,30.00,WNW,288,12.8,12.8,26,0.00,,---,0.00,VWS V14.01,2013-08-29 02:34:00,
2013-08-28 19:40:00,78.6,41.9,30.00,West,261,3.6,3.6,27,0.00,,---,0.00,VWS V14.01,2013-08-29 02:40:00,
2013-08-28 19:46:00,78.3,41.6,30.00,West,275,4.0,4.0,27,0.00,,---,0.00,VWS V14.01,2013-08-29 02:46:00,
2013-08-28 19:51:00,78.3,41.6,30.00,NW,317,4.9,4.9,27,0.00,,---,0.00,VWS V14.01,2013-08-29 02:51:00,
2013-08-28 19:56:00,78.3,36.9,30.00,NW,311,3.6,3.6,22,0.00,,---,0.00,VWS V14.01,2013-08-29 02:56:00,
2013-08-28 20:02:00,77.7,36.5,30.00,NW,311,3.6,3.6,22,0.00,,---,0.00,VWS V14.01,2013-08-29 03:02:00,
2013-08-28 20:07:00,77.5,36.3,30.00,NW,311,3.6,3.6,22,0.00,,---,0.00,VWS V14.01,2013-08-29 03:07:00,
2013-08-28 20:12:00,77.2,36.0,30.00,NW,311,3.6,3.6,22,0.00,,---,0.00,VWS V14.01,2013-08-29 03:12:00,
2013-08-28 20:17:00,76.6,35.5,30.00,NW,311,3.6,3.6,22,0.00,,---,0.00,VWS V14.01,2013-08-29 03:17:00,
2013-08-28 20:22:00,76.3,35.2,30.03,NW,311,3.6,3.6,22,0.00,,---,0.00,VWS V14.01,2013-08-29 03:22:00,
2013-08-28 20:27:00,75.9,34.9,30.03,NW,311,3.6,3.6,22,0.00,,---,0.00,VWS V14.01,2013-08-29 03:27:00,
2013-08-28 20:33:00,75.4,34.5,30.03,NW,311,3.6,3.6,22,0.00,,---,0.00,VWS V14.01,2013-08-29 03:33:00,
2013-08-28 20:38:00,74.8,35.7,30.03,NW,311,3.6,3.6,24,0.00,,---,0.00,VWS V14.01,2013-08-29 03:38:00,
2013-08-28 20:43:00,74.5,35.4,30.03,NW,311,3.6,3.6,24,0.00,,---,0.00,VWS V14.01,2013-08-29 03:43:00,
2013-08-28 20:48:00,74.3,35.2,30.03,NW,311,3.6,3.6,24,0.00,,---,0.00,VWS V14.01,2013-08-29 03:48:00,
2013-08-28 20:53:00,73.9,34.9,30.03,NW,311,3.6,3.6,24,0.00,,---,0.00,VWS V14.01,2013-08-29 03:53:00,
2013-08-28 20:59:00,73.6,37.6,30.03,NW,311,3.6,3.6,27,0.00,,---,0.00,VWS V14.01,2013-08-29 03:59:00,
2013-08-28 21:02:00,73.2,38.6,30.03,NW,311,3.6,3.6,28,0.00,,---,0.00,VWS V14.01,2013-08-29 04:02:00,
2013-08-28 21:04:00,73.0,38.5,30.03,NW,311,3.6,3.6,28,0.00,,---,0.00,VWS V14.01,2013-08-29 04:04:00,
2013-08-28 21:06:00,72.9,38.3,30.03,NW,311,3.6,3.6,28,0.00,,---,0.00,VWS V14.01,2013-08-29 04:06:00,
2013-08-28 21:11:00,72.3,37.9,30.03,NW,311,3.6,3.6,28,0.00,,---,0.00,VWS V14.01,2013-08-29 04:11:00,
2013-08-28 21:16:00,72.0,37.6,30.03,NW,311,3.6,3.6,28,0.00,,---,0.00,VWS V14.01,2013-08-29 04:16:00,
2013-08-28 21:21:00,71.6,39.8,30.03,NW,311,3.6,3.6,32,0.00,,---,0.00,VWS V14.01,2013-08-29 04:21:00,
2013-08-28 21:26:00,71.1,40.5,30.03,NW,311,3.6,3.6,33,0.00,,---,0.00,VWS V14.01,2013-08-29 04:26:00,
2013-08-28 21:32:00,70.5,40.1,30.03,NW,311,3.6,3.6,33,0.00,,---,0.00,VWS V14.01,2013-08-29 04:32:00,
2013-08-28 21:38:00,70.3,39.9,30.03,NW,311,3.6,3.6,33,0.00,,---,0.00,VWS V14.01,2013-08-29 04:38:00,
2013-08-28 21:43:00,70.0,39.6,30.03,NW,311,3.6,3.6,33,0.00,,---,0.00,VWS V14.01,2013-08-29 04:43:00,
2013-08-28 21:49:00,69.6,40.4,30.03,NW,311,3.6,3.6,34,0.00,,---,0.00,VWS V14.01,2013-08-29 04:49:00,
2013-08-28 21:54:00,69.4,40.2,30.03,NW,311,3.6,3.6,34,0.00,,---,0.00,VWS V14.01,2013-08-29 04:54:00,
2013-08-28 21:59:00,69.3,40.1,30.03,NW,311,3.6,3.6,34,0.00,,---,0.00,VWS V14.01,2013-08-29 04:59:00,
2013-08-28 22:04:00,69.3,40.1,30.03,NW,311,3.6,3.6,34,0.00,,---,0.00,VWS V14.01,2013-08-29 05:04:00,
2013-08-28 22:10:00,69.3,40.1,30.06,NW,311,3.6,3.6,34,0.00,,---,0.00,VWS V14.01,2013-08-29 05:10:00,
2013-08-28 22:15:00,69.3,40.1,30.06,NW,311,3.6,3.6,34,0.00,,---,0.00,VWS V14.01,2013-08-29 05:15:00,
2013-08-28 22:20:00,69.3,41.2,30.06,SE,143,0.0,0.0,36,0.00,,---,0.00,VWS V14.01,2013-08-29 05:20:00,
2013-08-28 22:26:00,69.1,41.0,30.06,SE,143,0.0,0.0,36,0.00,,---,0.00,VWS V14.01,2013-08-29 05:26:00,
2013-08-28 22:31:00,68.9,40.9,30.06,WNW,283,3.6,5.8,36,0.00,,---,0.00,VWS V14.01,2013-08-29 05:31:00,
2013-08-28 22:37:00,68.5,40.5,30.06,East,96,0.0,0.0,36,0.00,,---,0.00,VWS V14.01,2013-08-29 05:37:00,
2013-08-28 22:42:00,68.7,41.8,30.06,NNE,12,3.6,3.6,38,0.00,,---,0.00,VWS V14.01,2013-08-29 05:42:00,
2013-08-28 22:47:00,68.7,41.8,30.06,NE,42,0.0,0.0,38,0.00,,---,0.00,VWS V14.01,2013-08-29 05:47:00,
2013-08-28 22:53:00,68.7,41.8,30.06,WNW,292,3.1,3.1,38,0.00,,---,0.00,VWS V14.01,2013-08-29 05:53:00,
2013-08-28 22:59:00,68.5,42.6,30.06,WNW,292,2.7,2.7,39,0.00,,---,0.00,VWS V14.01,2013-08-29 05:59:00,
2013-08-28 23:05:00,68.5,42.6,30.06,WNW,293,0.0,0.0,39,0.00,,---,0.00,VWS V14.01,2013-08-29 06:05:00,
2013-08-28 23:11:00,68.5,42.6,30.03,WNW,293,3.1,3.1,39,0.00,,---,0.00,VWS V14.01,2013-08-29 06:11:00,
2013-08-28 23:17:00,68.7,42.8,30.03,WNW,293,0.0,0.0,39,0.00,,---,0.00,VWS V14.01,2013-08-29 06:17:00,
2013-08-28 23:23:00,68.7,42.8,30.06,SSE,164,0.0,2.7,39,0.00,,---,0.00,VWS V14.01,2013-08-29 06:23:00,
2013-08-28 23:28:00,68.5,42.6,30.06,SSE,164,0.0,0.0,39,0.00,,---,0.00,VWS V14.01,2013-08-29 06:28:00,
2013-08-28 23:34:00,68.7,42.8,30.06,SSE,167,2.2,2.7,39,0.00,,---,0.00,VWS V14.01,2013-08-29 06:34:00,
2013-08-28 23:39:00,68.5,43.6,30.06,ENE,58,2.2,3.1,40,0.00,,---,0.00,VWS V14.01,2013-08-29 06:39:00,
2013-08-28 23:46:00,68.2,43.3,30.06,NNW,344,0.0,0.0,40,0.00,,---,0.00,VWS V14.01,2013-08-29 06:46:00,
2013-08-28 23:51:00,67.6,42.8,30.06,NNW,344,0.0,0.0,40,0.00,,---,0.00,VWS V14.01,2013-08-29 06:51:00,
2013-08-28 23:56:00,67.5,42.6,30.06,NNW,344,0.0,0.0,40,0.00,,---,0.00,VWS V14.01,2013-08-29 06:56:00,